Regional Weather Roundup
Issued by NWS Newport/Morehead, NC

Current Version | Previous Version | Text Only | Print | Product List | Glossary Off
Versions: 1 2 3 4 5 6 7 8 9 10 11 12 13 14 15 16 17 18 19 20 21 22 23 24 25 26 27 28 29 30 31 32 33 34 35 36 37 38 39 40 41 42 43 44 45 46 47 48 49 50
678 ASUS42 KMHX 020913 RWRMHX WEATHER ROUNDUP FOR EASTERN NORTH CAROLINA NATIONAL WEATHER SERVICE NEWPORT/MOREHEAD CITY NC 400 AM EST FRI DEC 02 2016 NOTE: "FAIR" INDICATES FEW OR NO CLOUDS BELOW 12,000 FEET WITH NO SIGNIFICANT WEATHER AND/OR OBSTRUCTIONS TO VISIBILITY NCZ015>017-031-032-045>047-102-103-021000- NORTH COAST CITY SKY/WX TMP DP RH WIND PRES REMARKS EDENTON CLEAR 43 36 77 CALM 30.03S ELIZABETH CITY CLEAR 40 35 83 NW5 30.02R KITTY HAWK SUNNY 50 43 76 CALM 29.99R MANTEO CLEAR 49 41 73 NE10 30.00R $$ NCZ045>047-081-094-103-104-021000- CENTRAL COAST CITY SKY/WX TMP DP RH WIND PRES REMARKS FRISCO CLEAR 51 41 68 VRB3 29.98R $$ NCZ095-097-098-100-101-021000- SOUTHERN COAST CITY SKY/WX TMP DP RH WIND PRES REMARKS BEAUFORT PTCLDY 47 38 71 N7 30.01R CEDAR ISLAND NOT AVBL JACKSONVILLE CLEAR 44 37 76 N8 30.04R PINEY ISLAND SUNNY N/A N/A N/A NW10 30.01R WILMINGTON PTCLDY 45 36 70 N9 30.04R $$ NCZ011>013-027>030-043-044-078>080-089-090>093-098-021000- COASTAL PLAIN CITY SKY/WX TMP DP RH WIND PRES REMARKS AHOSKIE CLEAR 35 33 91 CALM 30.05S CLINTON CLEAR 44 35 70 CALM 30.06S ELIZABETHTOWN CLEAR 43 37 79 CALM 30.06R GOLDSBORO CLEAR 44 31 60 N5 30.04R GREENVILLE CLEAR 41 34 75 N3 30.06S HAVELOCK CLEAR 47 36 65 N12 30.03R KENANSVILLE CLEAR 43 32 65 N7 30.06R KINSTON N/A 43 33 68 N6 30.05S NEW BERN CLEAR 45 34 65 N9 30.04R RICHLANDS PTCLDY 42 35 76 N5 30.06R ROCKY MOUNT CLEAR 36 34 92 CALM 30.05F WASHINGTON PTCLDY 41 34 75 NW6 30.04R WHITEVILLE CLEAR 46 37 73 CALM 30.05R $$ AMZ130-135-150-152-154-156-158-170-250-252-270-ANZ085-086-088-633-658-670-021000- MARINE OBSERVATIONS STATION/POSITION TIME TEMP WIND PRES WAVE SWELL AIR SEA DIR/SP/G HT/PER HT/PER (UTC) (F) (DEG/KT/KT) (MB) (FT/S) (FT/S) CHESAPEAKE LIGHT NOT AVBL 64 E VA BEACH 0850 51 59 360/ 19/ 23 1014.7 5/ 5 2/ 8 DUCK 0848 51 57 10/ 14/ 17 1015.4 2 E DUCK NOT AVBL OREGON INLET 0836 52 60 360/ 10/ 16 1015.2 13E OREGON INLT 0900 63 N/A 3/ 8 2/ 8 HATTERAS CG 0848 53 64 340/ 14/ 16 1014.8 DIAMOND BUOY 0850 58 75 340/ 14/ 17 1015.0 4/ 7 3/ 7 CAPE LOOKOUT 0900 50 350/ 12/ 15 1015.7 BEAUFORT LAB 0848 49 59 340/ 6/ 11 1015.1 30 SE NEW RVR IN 0808 59 73 10/ 17/ 25 1015.8 30 SE NEW RVR IN NOT AVBL 27 SE WRIGHTSVLE 0808 58 67 350/ 16/ 23 1015.5 5 SE WRIGHTSVLE 0808 52 62 20/ 16/ 29 1015.6 225 S CAPE HAT 0850 73 74 290/ 14/ 16 1013.9 6/ 8 5/ 8 41 SE CHARLESTON 0850 60 74 320/ 14/ 16 1016.8 5/ 5 2/ 8 $$

USA.gov is the U.S. government's official web portal to all federal, state and local government web resources and services.